Location: Elko Observing site
(32.3606°N, 83.7235°W)
Time: 06:14:03
(UTC-04:00)

Envisat - Visible Passes

Search period start: 19 October 2019 00:00
Search period end: 29 October 2019 00:00
Orbit: 764 x 766 km, 98.1° (Epoch: 19 October)

Date Brightness Start Highest point End Pass type
(mag) Time Alt. Az. Time Alt. Az. Time Alt. Az.
19 Oct 5.5 20:46:11 10° SW 20:50:03 22° W 20:53:57 10° NW visible
20 Oct 3.8 20:08:12 10° S 20:13:09 54° W 20:18:08 10° NNW visible
21 Oct 3.0 19:31:26 10° SSE 19:36:26 62° ENE 19:41:26 10° N visible
21 Oct 6.2 21:14:13 10° WSW 21:15:46 11° W 21:17:19 10° WNW visible
22 Oct 5.0 20:34:24 10° SSW 20:38:44 28° W 20:43:06 10° NW visible
23 Oct 6.5 07:10:50 10° ENE 07:12:57 12° E 07:15:04 10° ESE visible
23 Oct 3.3 19:56:50 10° S 20:01:53 71° WSW 20:06:57 10° NNW visible
24 Oct 3.2 19:20:22 10° SSE 19:25:12 47° ENE 19:30:04 10° N visible
24 Oct 5.9 21:01:31 10° SW 21:04:24 15° W 21:07:18 10° WNW visible
25 Oct 4.5 20:22:46 10° SSW 20:27:25 37° W 20:32:07 10° NNW visible
26 Oct 3.0 19:45:33 10° SSE 19:50:37 89° ENE 19:55:44 10° NNW visible
27 Oct 3.5 19:09:24 10° SE 19:14:00 36° ENE 19:18:38 10° N visible
27 Oct 5.6 20:49:24 10° SW 20:53:03 20° W 20:56:43 10° NW visible
28 Oct 4.0 20:11:15 10° S 20:16:08 48° W 20:21:03 10° NNW visible
